THOR ABLESTAR DEB, 465

Orbit data source: Space-Track

THOR ABLESTAR DEB, 465 is space debris in LEO originally from a launch on Thu, 29 Jun 1961 UTC launched from the Air Force Eastern Test Range (AFETR). Debris objects in space refer to the collection of defunct objects orbiting the Earth. Examples of debris include non-operational satellites, rocket bodies, and fragments generated from explosions, collisions, or faulty payload assembly.

Loading next visibility...
Identifier
465, 1961-015FB
Orbit
LEO
Country
Flag of USUS
Related business
Manufacturer
Unknown
Mission
Spacecraft
Bus & Motor
Unknown
Mass
Unknown
Launch date (UTC)
1961-06-29 (65 years ago)
Launch vehicle
Unknown
Launch site
Air Force Eastern Test Range (AFETR)
Object type
Payload
Rocket body
Debris
Shape & HBR
Unknown shape, 0.1 m
Radar Cross Section
Small (<0.1 m²)

Expand to show TLE details & history
Last TLE update: 16 hours ago

TLE from 16 hours ago
0 THOR ABLESTAR DEB
1 00465U 61015FB  26119.10554966  .00001453  00000-0  47649-3 0  9999
2 00465  66.3190  28.3170 0036784 326.9163  32.9637 14.40919334339037
Epoch: 2026-04-29T02:31Z
TLE epoch observation values (Epoch: 2026-04-29T02:31:59.490Z)
Latitude
0.00003°
Longitude
133.24786°
Altitude
735.561 km
Speed
7.499 km/s
True Right ascension
01h 53m 16s
True Declination
0° 00' 00"
Sunlit
Object was in daylight at epoch
Visualization orbit readout
Latitude
Unknown
Longitude
Unknown
Altitude
Unknown
Speed
Unknown
Apparent Right ascension
Unknown
Apparent Declination
Unknown
Sunlit
N/A
Visualization observer readout
Local Sidereal Time
01:43:33
Azimuth
Unknown
Elevation
Unknown
Doppler factor
Unknown
Orbital elements
Apogee altitude
780.109 km
Perigee altitude
727.64 km
Semi-major axis
7,132.011 km
Eccentricity
0.00368
Inclination
66.319°
RAAN
28.317°
Arg. of periapsis
326.9163°
True anomaly
33.19394°
Mean anomaly
32.9637°
Eccentric anomaly
33.07873°
Mean motion
3.60351 °/min
Orbital period
99.9 mins
BSTAR
0.00047649
Loading maneuver chart data...
Computing Atmospheric mass density...

Documentation

Showing up to 5 results
|